Current Version              Previous Version:    01  02  03  04  05  06  07  08  09  10  11  12  13  14  15  16  17  18  19  20  21  22  23  24  25  26  27  28  29  30  
   31  32  33  34  35  36  37  38  39  40  41  42  43  44  45  46  47  48  49  50  51  52  53  54  55  56  57  58  59  60  

[Printable]
247
ASUS44 KFWD 011801
RWRTX
NORTH TEXAS HOURLY WEATHER ROUNDUP
NATIONAL WEATHER SERVICE FORT WORTH TX
100 PM CDT MON SEP 01 2014

NOTE: "FAIR" INDICATES FEW OR NO CLOUDS BELOW 12,000 FEET WITH NO
SIGNIFICANT WEATHER AND/OR OBSTRUCTIONS TO VISIBILITY.

TXZ118-119-011900-
DALLAS/FORT WORTH METROPLEX

CITY           SKY/WX    TMP DP  RH WIND       PRES   REMARKS
DFW AIRPORT    MOSUNNY   91  72  53 S17       29.91S HX  98
6HR MIN TEMP:  78; 6HR MAX TEMP:  91;

DALLAS LOVE    MOSUNNY   92  71  50 S13       29.91F HX  98
6HR MIN TEMP:  78; 6HR MAX TEMP:  92;

FTW MEACHAM    SUNNY     95  71  45 S10       29.89F HX 102
6HR MIN TEMP:  78; 6HR MAX TEMP:  96;

DAL-EXECUTIVE  MOSUNNY   93  70  46 VRB6G22   29.92S HX  99
6HR MIN TEMP:  78; 6HR MAX TEMP:  93;

FTW-ALLIANCE   MOSUNNY   94  70  45 S14G21    29.89F HX 100
6HR MIN TEMP:  76; 6HR MAX TEMP:  94;

FTW-NAS-JRB    SUNNY     97  67  37 S16G24    29.93F HX 101
6HR MIN TEMP:  80; 6HR MAX TEMP:  97;

FTW-SPINKS     MOSUNNY   91  72  52 S10G17    29.92F HX  98
ARLINGTON      MOSUNNY   91  71  51 S12G22    29.91F HX  97
6HR MIN TEMP:  77; 6HR MAX TEMP:  92;

ADDISON        MOSUNNY   91  68  46 S13       29.93F HX  95
MESQUITE       PTSUNNY   91  68  46 S14G21    29.94S HX  95
LANCASTER      MOSUNNY   90  69  49 S10G16    29.94S HX  95
6HR MIN TEMP:  76; 6HR MAX TEMP:  91;

$$

TXZ091>094-102>105-117-120-121-131>134-011900-
NORTH CENTRAL TEXAS

CITY           SKY/WX    TMP DP  RH WIND       PRES   REMARKS
SHRMAN/DENISON MOSUNNY   91  69  48 S13G18    29.93F HX  96
6HR MIN TEMP:  76; 6HR MAX TEMP:  91;

GAINESVILLE    MOSUNNY   88  73  61 SE12      29.93F HX  96
6HR MIN TEMP:  74; 6HR MAX TEMP:  89;

BOWIE          SUNNY     91  71  52 S12G17    29.90F HX  97
6HR MIN TEMP:  75; 6HR MAX TEMP:  91;

BRIDGEPORT     SUNNY     92  66  43 S14G20    29.91F HX  94
6HR MIN TEMP:  77; 6HR MAX TEMP:  92;

DECATUR        MOSUNNY   90  68  47 SE12G22   29.91F HX  93
6HR MIN TEMP:  75; 6HR MAX TEMP:  91;

DENTON         MOSUNNY   91  70  49 S15G21    29.90F HX  96
6HR MIN TEMP:  75; 6HR MAX TEMP:  92;

MCKINNEY       SUNNY     91  71  51 S16G24    29.93S HX  97
6HR MIN TEMP:  77; 6HR MAX TEMP:  91;

GREENVILLE     MOSUNNY   91  68  46 S10G16    29.95F HX  95
ROCKWALL       PTSUNNY   90  71  54 S12G20    29.92F HX  96
6HR MIN TEMP:  76; 6HR MAX TEMP:  90;

TERRELL        PTSUNNY   90  70  51 S8G21     29.94F HX  95
6HR MIN TEMP:  79; 6HR MAX TEMP:  91;

WAXAHACHIE     MOSUNNY   91  67  44 S16       29.93F HX  94
6HR MIN TEMP:  76; 6HR MAX TEMP:  92;

CLEBURNE       SUNNY     91  72  52 S14G20    29.93F HX  98
$$

TXZ083>090-098>101-113>116-127>130-139>142-154-155-011900-
WESTERN NORTH TEXAS

CITY           SKY/WX    TMP DP  RH WIND       PRES   REMARKS
WICHITA FALLS  SUNNY     94  69  44 S14G22    29.85F HX  99
6HR MIN TEMP:  78; 6HR MAX TEMP:  94;

WF-KICKAPOO    SUNNY     96  64  34 S12G26    29.87S HX  97
6HR MIN TEMP:  78; 6HR MAX TEMP:  96;

VERNON         SUNNY     94  67  41 SW15G22   29.84F HX  97
ABILENE        SUNNY     93  65  39 S21G32    29.90F HX  95
6HR MIN TEMP:  76; 6HR MAX TEMP:  95;

ABILENE-DYESS  SUNNY     93  68  43 S18G25    29.88F HX  98
6HR MIN TEMP:  76; 6HR MAX TEMP:  93;

BRECKENRIDGE   SUNNY     95  63  35 S13G25    29.88F HAZE    HX  96
6HR MIN TEMP:  78; 6HR MAX TEMP:  95;

MINERAL WELLS  SUNNY     93  69  45 S14G21    29.87F HX  98
6HR MIN TEMP:  76; 6HR MAX TEMP:  93;

STEPHENVILLE   SUNNY     91  65  42 S12G20    29.94F HX  92
6HR MIN TEMP:  75; 6HR MAX TEMP:  91;

COMANCHE         N/A     93  63  36 SW12G23   29.92F HX  94
6HR MIN TEMP:  75; 6HR MAX TEMP:  93;

BROWNWOOD      SUNNY     91  64  40 SE15G22   29.92F HX  93
COLEMAN        SUNNY     92  62  36 S20       29.92F HX  93
6HR MIN TEMP:  74; 6HR MAX TEMP:  92;

BRADY          SUNNY     90  64  43 SE12      29.93F HX  91
$$

TXZ143>147-156>162-174-175-011900-
CENTRAL TEXAS

CITY           SKY/WX    TMP DP  RH WIND       PRES   REMARKS
WACO           MOSUNNY   93  69  45 S16       29.92F HX  98
6HR MIN TEMP:  77; 6HR MAX TEMP:  94;

WACO-MCGREGOR  MOSUNNY   93  70  46 S14G28    29.93F HX  99
6HR MIN TEMP:  75; 6HR MAX TEMP:  93;

HILLSBORO      SUNNY     92  68  45 S17G25    29.92F HX  97
6HR MIN TEMP:  76; 6HR MAX TEMP:  92;

CORSICANA      MOSUNNY   89  71  55 S12       29.95F HX  95
6HR MIN TEMP:  77; 6HR MAX TEMP:  91;

MEXIA          MOSUNNY   89  73  59 S10       29.94F HX  98
6HR MIN TEMP:  75; 6HR MAX TEMP:  89;

HEARNE           N/A     92  72  51 S12       29.94F HX 100
6HR MIN TEMP:  76; 6HR MAX TEMP:  92;

CAMERON        PTSUNNY   93  70  46 S15G21    29.93F HX  99
6HR MIN TEMP:  76; 6HR MAX TEMP:  94;

TEMPLE         MOSUNNY   93  68  43 S16G22    29.92F HX  97
6HR MIN TEMP:  75; 6HR MAX TEMP:  93;

KILLEEN        NOT AVBL
KILLEEN-SKYLRK MOSUNNY   93  68  43 S15       29.93F HX  97
6HR MIN TEMP:  75; 6HR MAX TEMP:  93;

FORT HOOD      MOSUNNY   96  68  39 S9G20     29.92F HX 101
6HR MIN TEMP:  78; 6HR MAX TEMP:  96;

HAMILTON       SUNNY     93  66  41 S18G25    29.94F HX  95
LAMPASAS       SUNNY     92  70  49 S12G18    29.93F HX  97
6HR MIN TEMP:  76; 6HR MAX TEMP:  92;

$$

TXZ095>097-106>112-122>126-135>138-148>153-164>167-011900-
EAST TEXAS

CITY           SKY/WX    TMP DP  RH WIND       PRES   REMARKS
PARIS          MOSUNNY   88  70  55 S13       29.97F HX  92
6HR MIN TEMP:  75; 6HR MAX TEMP:  88;

SULPHUR SPRNGS MOSUNNY   89  70  52 S9        29.99S HX  94
6HR MIN TEMP:  77; 6HR MAX TEMP:  89;

MOUNT PLEASANT PTSUNNY   89  69  51 S3        29.99F HX  92
6HR MIN TEMP:  76; 6HR MAX TEMP:  89;

MINEOLA        PTSUNNY   88  73  62 S7        29.98S HX  96
TYLER          PTSUNNY   89  70  53 S12       29.97F HX  94
6HR MIN TEMP:  77; 6HR MAX TEMP:  89;

LONGVIEW       MOSUNNY   91  69  48 S12       29.97F HX  96
6HR MIN TEMP:  77; 6HR MAX TEMP:  92;

MARSHALL       SUNNY     94  73  51 S10       30.01S HX 103
6HR MIN TEMP:  78; 6HR MAX TEMP:  94;

ATHENS         CLOUDY    88  72  58 S8        29.95F HX  94
PALESTINE      MOSUNNY   89  71  54 SE8G17    29.97F HX  95
JACKSONVILLE   PTSUNNY   88  71  57 SE10      30.01S HX  94
HENDERSON      PTSUNNY   92  68  45 S9G17     29.99F HX  96
6HR MIN TEMP:  77; 6HR MAX TEMP:  92;

NACOGDOCHES    MOSUNNY   90  73  58 S14       29.98F HX  98
6HR MIN TEMP:  77; 6HR MAX TEMP:  90;

LUFKIN         SUNNY     93  74  53 SE10      29.98F HX 103
6HR MIN TEMP:  78; 6HR MAX TEMP:  93;

$$

SUPPLEMENTAL OBSERVATIONS (CENTRAL)

CITY           SKY/WX    TMP DP  RH WIND       PRES   REMARKS
$$

SUPPLEMENTAL OBSERVATIONS (WEST)

CITY           SKY/WX    TMP DP  RH WIND       PRES   REMARKS
$$

SUPPLEMENTAL OBSERVATIONS (EAST)

CITY           SKY/WX    TMP DP  RH WIND       PRES   REMARKS
$$

SUPPLEMENTAL OBSERVATIONS ARE A COLLECTION OF AUTOMATED INSTRUMENTS
THAT ARE MAINTAINED BY A VARIETY OF FEDERAL AND STATE AGENCIES.
CERTAIN ELEMENTS...SUCH AS HUMIDITY VALUES AND SUSTAINED WIND
SPEEDS...MAY BE APPROXIMATED.